• In Netherlands
  • List of Countries
  • For 7 days
  • Water Temperature
  • Satellite Maps
  • Weather Map
  • Weather Widgets
  • user-avatar
    Login

    Hourly Weather Megri

    Today, 19 January, Friday

    Time Temperature Precipitation Wind Pressure Humidity
    00:00 -4°C° 0 mm 3 mps 614 mmHg 79%
    01:00 -4°C° 0 mm 3 mps 614 mmHg 80%
    02:00 -4°C° 0 mm 3 mps 614 mmHg 81%
    03:00 -4°C° 0 mm 3 mps 613 mmHg 82%
    04:00 -4°C° 0 mm 3 mps 613 mmHg 82%
    05:00 -4°C° 0 mm 3 mps 613 mmHg 81%
    06:00 -4°C° 0 mm 3 mps 613 mmHg 81%
    07:00 -2°C° 0 mm 3 mps 614 mmHg 78%
    08:00 -2°C° 0 mm 2 mps 614 mmHg 76%
    09:00 +1°C° 0 mm 2 mps 614 mmHg 73%
    10:00 +1°C° 0 mm 3 mps 615 mmHg 70%
    11:00 +2°C° 0 mm 3 mps 615 mmHg 66%
    12:00 +3°C° 0 mm 3 mps 615 mmHg 63%
    13:00 +3°C° 0 mm 3 mps 615 mmHg 60%
    14:00 +3°C° 0 mm 3 mps 615 mmHg 58%
    15:00 +5°C° 0 mm 2 mps 615 mmHg 55%
    16:00 +3°C° 0 mm 2 mps 615 mmHg 58%
    17:00 +2°C° 0 mm 2 mps 614 mmHg 61%
    18:00 +1°C° 0 mm 2 mps 614 mmHg 65%
    19:00 +1°C° 0.1 mm 2 mps 614 mmHg 66%
    20:00 +2°C° 0.1 mm 1 mps 614 mmHg 67%
    21:00 +2°C° 0.1 mm 1 mps 615 mmHg 69%
    22:00 +1°C° 0.3 mm 1 mps 615 mmHg 73%
    23:00 -1°C° 0.3 mm 2 mps 615 mmHg 77%

    Tomorrow, 20 January, Saturday

    Time Temperature Precipitation Wind Pressure Humidity
    00:00 -1°C° 0.3 mm 2 mps 615 mmHg 81%
    01:00 -1°C° 0.6 mm 2 mps 616 mmHg 83%
    02:00 +1°C° 0.6 mm 1 mps 616 mmHg 86%
    03:00 +1°C° 0.6 mm 1 mps 616 mmHg 88%
    04:00 +1°C° 0.6 mm 1 mps 617 mmHg 88%
    05:00 0°C° 0.6 mm 1 mps 617 mmHg 89%
    06:00 0°C° 0.6 mm 1 mps 618 mmHg 90%
    07:00 0°C° 0.5 mm 1 mps 618 mmHg 88%
    08:00 +1°C° 0.5 mm 1 mps 619 mmHg 87%
    09:00 +1°C° 0.5 mm 1 mps 619 mmHg 86%
    10:00 +1°C° 0.2 mm 1 mps 619 mmHg 83%
    11:00 +2°C° 0.2 mm 1 mps 620 mmHg 80%
    12:00 +2°C° 0.2 mm 1 mps 620 mmHg 77%
    13:00 +2°C° 0.1 mm 1 mps 620 mmHg 75%
    14:00 +2°C° 0.1 mm 1 mps 621 mmHg 73%
    15:00 +3°C° 0.1 mm 1 mps 621 mmHg 70%
    16:00 +2°C° 0 mm 1 mps 621 mmHg 72%
    17:00 0°C° 0 mm 1 mps 621 mmHg 74%
    18:00 -1°C° 0 mm 1 mps 621 mmHg 75%
    19:00 -1°C° 0 mm 1 mps 621 mmHg 75%
    20:00 -2°C° 0 mm 1 mps 621 mmHg 75%
    21:00 -2°C° 0 mm 1 mps 622 mmHg 75%
    22:00 -2°C° 0 mm 1 mps 622 mmHg 75%
    23:00 -2°C° 0 mm 1 mps 622 mmHg 74%

    Day after tomorrow, 21 January, Sunday

    Time Temperature Precipitation Wind Pressure Humidity
    00:00 -2°C° 0 mm 1 mps 622 mmHg 74%
    01:00 -4°C° 0 mm 2 mps 622 mmHg 75%
    02:00 -4°C° 0 mm 2 mps 622 mmHg 76%
    03:00 -4°C° 0 mm 2 mps 622 mmHg 76%
    04:00 -4°C° 0 mm 2 mps 622 mmHg 78%
    05:00 -4°C° 0 mm 2 mps 622 mmHg 79%
    06:00 -4°C° 0 mm 2 mps 622 mmHg 80%
    07:00 -3°C° 0 mm 2 mps 622 mmHg 79%
    08:00 -2°C° 0 mm 2 mps 622 mmHg 78%
    09:00 -1°C° 0 mm 2 mps 623 mmHg 77%
    10:00 +1°C° 0 mm 2 mps 623 mmHg 73%
    11:00 +1°C° 0 mm 3 mps 623 mmHg 70%
    12:00 +2°C° 0 mm 3 mps 622 mmHg 66%
    13:00 +2°C° 0 mm 3 mps 622 mmHg 64%
    14:00 +2°C° 0 mm 3 mps 622 mmHg 62%
    15:00 +3°C° 0 mm 2 mps 622 mmHg 60%
    16:00 +2°C° 0 mm 2 mps 621 mmHg 63%
    17:00 +1°C° 0 mm 2 mps 621 mmHg 65%
    18:00 -2°C° 0 mm 2 mps 621 mmHg 67%
    19:00 -2°C° 0 mm 2 mps 621 mmHg 66%
    20:00 -2°C° 0 mm 2 mps 621 mmHg 64%
    21:00 -2°C° 0 mm 2 mps 621 mmHg 62%
    22:00 -2°C° 0 mm 2 mps 621 mmHg 61%
    23:00 -2°C° 0 mm 2 mps 620 mmHg 60%

    22 January, Monday

    Time Temperature Precipitation Wind Pressure Humidity
    00:00 -2°C° 0 mm 2 mps 620 mmHg 58%
    01:00 -2°C° 0 mm 2 mps 620 mmHg 58%
    02:00 -2°C° 0 mm 2 mps 620 mmHg 57%
    03:00 -2°C° 0 mm 2 mps 619 mmHg 57%
    04:00 -2°C° 0 mm 2 mps 619 mmHg 57%
    05:00 -2°C° 0 mm 2 mps 619 mmHg 57%
    06:00 -2°C° 0 mm 2 mps 618 mmHg 57%
    07:00 -1°C° 0 mm 2 mps 619 mmHg 56%
    08:00 +1°C° 0 mm 2 mps 619 mmHg 56%
    09:00 +1°C° 0 mm 2 mps 619 mmHg 55%
    10:00 +2°C° 0 mm 2 mps 618 mmHg 53%
    11:00 +4°C° 0 mm 2 mps 618 mmHg 52%
    12:00 +5°C° 0 mm 2 mps 618 mmHg 50%
    13:00 +5°C° 0 mm 2 mps 617 mmHg 49%
    14:00 +5°C° 0 mm 2 mps 617 mmHg 47%
    15:00 +5°C° 0 mm 2 mps 616 mmHg 46%
    16:00 +3°C° 0 mm 2 mps 616 mmHg 46%
    17:00 +2°C° 0 mm 2 mps 616 mmHg 47%
    18:00 -1°C° 0 mm 2 mps 615 mmHg 47%
    19:00 -1°C° 0 mm 2 mps 615 mmHg 45%
    20:00 -1°C° 0 mm 2 mps 615 mmHg 44%
    21:00 -1°C° 0 mm 3 mps 615 mmHg 43%
    22:00 -2°C° 0 mm 3 mps 615 mmHg 44%
    23:00 -2°C° 0 mm 3 mps 615 mmHg 45%

    23 January, Tuesday

    Time Temperature Precipitation Wind Pressure Humidity
    00:00 -2°C° 0 mm 3 mps 615 mmHg 46%
    01:00 -2°C° 0 mm 3 mps 615 mmHg 48%
    02:00 -4°C° 0 mm 3 mps 615 mmHg 49%
    03:00 -4°C° 0 mm 3 mps 615 mmHg 51%
    04:00 -3°C° 0 mm 2 mps 615 mmHg 53%
    05:00 -3°C° 0 mm 2 mps 615 mmHg 54%
    06:00 -3°C° 0 mm 2 mps 615 mmHg 55%
    07:00 -2°C° 0 mm 2 mps 615 mmHg 55%
    08:00 -2°C° 0 mm 2 mps 615 mmHg 54%
    09:00 -1°C° 0 mm 2 mps 616 mmHg 54%
    10:00 0°C° 0 mm 3 mps 616 mmHg 54%
    11:00 +1°C° 0 mm 3 mps 616 mmHg 53%
    12:00 +2°C° 0 mm 3 mps 615 mmHg 52%
    13:00 +3°C° 0 mm 3 mps 615 mmHg 52%
    14:00 +3°C° 0 mm 3 mps 615 mmHg 53%
    15:00 +3°C° 0 mm 3 mps 615 mmHg 53%
    16:00 +3°C° 0 mm 2 mps 615 mmHg 55%
    17:00 +2°C° 0 mm 2 mps 615 mmHg 57%
    18:00 +2°C° 0 mm 1 mps 615 mmHg 59%
    19:00 +2°C° 0 mm 1 mps 615 mmHg 59%
    20:00 +2°C° 0 mm 1 mps 615 mmHg 60%
    21:00 +2°C° 0 mm 1 mps 615 mmHg 61%
    22:00 +1°C° 0.1 mm 1 mps 615 mmHg 63%
    23:00 +1°C° 0.1 mm 1 mps 615 mmHg 66%

    24 January, Wednesday

    Time Temperature Precipitation Wind Pressure Humidity
    00:00 +1°C° 0.1 mm 1 mps 615 mmHg 68%
    01:00 +1°C° 0.2 mm 1 mps 615 mmHg 71%
    02:00 -1°C° 0.2 mm 2 mps 615 mmHg 75%
    03:00 -1°C° 0.2 mm 2 mps 615 mmHg 78%
    04:00 -1°C° 0.6 mm 2 mps 615 mmHg 80%
    05:00 0°C° 0.6 mm 1 mps 615 mmHg 83%
    06:00 0°C° 0.6 mm 1 mps 615 mmHg 86%
    07:00 0°C° 0.8 mm 1 mps 616 mmHg 85%
    08:00 +1°C° 0.8 mm 1 mps 616 mmHg 85%
    09:00 +1°C° 0.8 mm 1 mps 617 mmHg 84%
    10:00 -1°C° 0.5 mm 2 mps 617 mmHg 83%
    11:00 -1°C° 0.5 mm 2 mps 617 mmHg 82%
    12:00 +1°C° 0.5 mm 2 mps 617 mmHg 81%
    13:00 +1°C° 0.5 mm 2 mps 618 mmHg 81%
    14:00 -1°C° 0.5 mm 2 mps 618 mmHg 81%
    15:00 +1°C° 0.5 mm 1 mps 618 mmHg 81%
    16:00 +1°C° 0.1 mm 1 mps 618 mmHg 82%
    17:00 0°C° 0.1 mm 1 mps 619 mmHg 83%
    18:00 -1°C° 0.1 mm 1 mps 619 mmHg 84%
    19:00 -1°C° 0.1 mm 1 mps 619 mmHg 84%
    20:00 -2°C° 0.1 mm 1 mps 620 mmHg 84%
    21:00 -2°C° 0.1 mm 1 mps 620 mmHg 84%
    22:00 -2°C° 0.1 mm 1 mps 620 mmHg 83%
    23:00 -2°C° 0.1 mm 1 mps 620 mmHg 82%
    Show more